Location: Prairie State College
(41.5244°N, 87.6382°W)
Time: 13:09:44
(UTC-05:00)

ISS - All Passes

Search period start: 01 August 2015 00:00
Search period end: 11 August 2015 00:00
Orbit: 401 x 403 km, 51.6° (Epoch: 01 August)

Date Brightness Start Highest point End Pass type
(mag) Time Alt. Az. Time Alt. Az. Time Alt. Az.
01 Aug - 01:16:18 10° NNW 01:18:13 15° N 01:20:09 10° NE visible
01 Aug - 02:52:23 10° NW 02:55:23 33° NNE 02:58:23 10° E visible
01 Aug - 04:28:50 10° WNW 04:31:49 33° SW 04:34:47 10° SSE visible
01 Aug - 21:07:43 10° SW 21:10:56 66° SE 21:14:10 10° ENE visible
01 Aug - 22:44:56 10° WNW 22:47:37 23° NNW 22:50:17 10° NE visible
02 Aug - 00:23:06 10° NW 00:24:55 14° N 00:26:44 10° NE visible
02 Aug - 01:59:32 10° NW 02:02:13 23° NNE 02:04:54 10° ENE night (unlit)
02 Aug - 03:35:39 10° WNW 03:38:54 67° SW 03:42:08 10° SE visible
02 Aug - 20:15:04 10° SSW 20:18:01 32° SE 20:20:59 10° ENE daylight
02 Aug - 21:51:26 10° W 21:54:26 33° NNW 21:57:27 10° NE visible
02 Aug - 23:29:40 10° NW 23:31:36 15° N 23:33:32 10° NNE visible
03 Aug - 01:06:40 10° NNW 01:08:58 18° NNE 01:11:18 10° ENE visible
03 Aug - 02:42:39 10° NW 02:45:54 64° NNE 02:49:08 10° ESE night (unlit)
03 Aug - 04:20:06 10° W 04:22:01 15° SW 04:23:51 10° SSW night (unlit)
03 Aug - 19:22:58 10° S 19:25:09 17° SE 19:27:24 10° E daylight
03 Aug - 20:58:07 10° WSW 21:01:19 55° NNW 21:04:32 10° NE visible
03 Aug - 22:36:04 10° NW 22:38:18 17° NNW 22:40:31 10° NNE visible
04 Aug - 00:13:42 10° NNW 00:15:41 15° N 00:17:41 10° NE visible
04 Aug - 01:49:44 10° NW 01:52:49 37° NNE 01:55:53 10° E night (unlit)
04 Aug - 03:26:19 10° WNW 03:29:10 27° SW 03:31:59 10° SSE night (unlit)
04 Aug - 20:05:02 10° SW 20:08:17 79° SE 20:11:33 10° ENE daylight
04 Aug - 21:42:27 10° WNW 21:45:02 21° NNW 21:47:37 10° NE visible
04 Aug - 23:20:33 10° NNW 23:22:21 14° N 23:24:11 10° NE visible
05 Aug - 00:56:52 10° NW 00:59:38 25° NNE 01:02:24 10° E visible
05 Aug - 02:33:02 10° WNW 02:36:15 55° SW 02:39:26 10° SE night (unlit)
05 Aug - 19:12:17 10° SSW 19:15:19 39° SE 19:18:23 10° ENE daylight
05 Aug - 20:48:53 10° W 20:51:49 29° NNW 20:54:44 10° NE visible
05 Aug - 22:27:08 10° NW 22:29:01 14° N 22:30:54 10° NNE visible
06 Aug - 00:03:58 10° NNW 00:06:23 19° NNE 00:08:48 10° ENE visible
06 Aug - 01:39:58 10° NW 01:43:14 76° NE 01:46:30 10° ESE night (unlit)
06 Aug - 03:17:52 10° WSW 03:19:18 12° SW 03:20:37 10° SSW night (unlit)
06 Aug - 18:19:57 10° S 18:22:25 20° SE 18:24:55 10° E daylight
06 Aug - 19:55:29 10° WSW 19:58:39 47° NNW 20:01:49 10° NE daylight
06 Aug - 21:33:33 10° NW 21:35:41 16° N 21:37:49 10° NNE visible
06 Aug - 23:11:00 10° NNW 23:13:04 16° N 23:15:09 10° NE visible
07 Aug - 00:47:01 10° NW 00:50:09 42° NNE 00:53:16 10° ESE visible
07 Aug - 02:23:45 10° W 02:26:26 23° SW 02:29:04 10° S night (unlit)
07 Aug - 17:28:58 10° SE 17:29:34 10° SE 17:30:16 10° ESE daylight
07 Aug - 19:02:19 10° SW 19:05:34 87° NNW 19:08:50 10° NE daylight
07 Aug - 20:39:53 10° WNW 20:42:22 20° NNW 20:44:51 10° NNE visible
07 Aug - 22:17:53 10° NNW 22:19:43 14° N 22:21:34 10° NE visible
07 Aug - 23:54:06 10° NW 23:56:57 27° NNE 23:59:49 10° E visible
08 Aug - 01:30:21 10° WNW 01:33:30 45° SW 01:36:37 10° SSE night (unlit)
08 Aug - 18:09:25 10° SW 18:12:33 47° SE 18:15:42 10° ENE daylight
08 Aug - 19:46:16 10° W 19:49:06 27° NNW 19:51:57 10° NE daylight
08 Aug - 21:24:31 10° NW 21:26:21 14° N 21:28:11 10° NNE visible
08 Aug - 23:01:11 10° NNW 23:03:41 20° NNE 23:06:12 10° ENE visible
09 Aug - 00:37:13 10° NW 00:40:29 89° N 00:43:45 10° SE visible
09 Aug - 02:16:11 10° SW 02:16:29 10° SW 02:16:40 10° SW night (unlit)
09 Aug - 17:16:56 10° S 17:19:36 24° SE 17:22:19 10° ENE daylight
09 Aug - 18:52:47 10° W 18:55:54 41° NNW 18:59:01 10° NE daylight
09 Aug - 20:30:55 10° NW 20:32:59 15° N 20:35:01 10° NNE visible
09 Aug - 22:08:13 10° NNW 22:10:22 16° N 22:12:31 10° NE visible
09 Aug - 23:44:12 10° NW 23:47:23 48° NNE 23:50:33 10° ESE visible
10 Aug - 01:21:08 10° W 01:23:36 20° SW 01:26:01 10° S night (unlit)
10 Aug - 16:25:16 10° SSE 16:26:42 13° SE 16:28:15 10° ESE daylight
10 Aug - 17:59:31 10° WSW 18:02:46 74° NW 18:06:02 10° NE daylight
10 Aug - 19:37:14 10° WNW 19:39:38 18° NNW 19:42:01 10° NNE daylight
10 Aug - 21:15:07 10° NNW 21:16:59 14° N 21:18:53 10° NE visible
10 Aug - 22:51:15 10° NW 22:54:11 30° NNE 22:57:08 10° E visible
